CELESTIS 02/TAURUS R/B, 25160

Orbit data source: Space-Track

CELESTIS 02/TAURUS R/B, 25160 is space debris in LEO originally from a launch on Tue, 10 Feb 1998 UTC launched from the Air Force Western Test Range (AFWTR). Debris objects in space refer to the collection of defunct objects orbiting the Earth. Examples of debris include non-operational satellites, rocket bodies, and fragments generated from explosions, collisions, or faulty payload assembly.

Loading next visibility...
Identifier
25160, 1998-007D
Orbit
LEO
Country
Flag of USUS
Related business
Manufacturer
Alliant
Mission
Operational spacecraft
Bus & Motor
ORION 38, Unknown motor
Mass
202 kg wet, 202 kg dry
Launch date (UTC)
1998-02-10 (28 years ago)
Launch vehicle
Unknown
Launch site
Air Force Western Test Range (AFWTR)
Object type
Payload
Rocket body
Debris
Shape & HBR
Unknown
Radar Cross Section
Large (>1 m²)

Expand to show TLE details & history
Last TLE update: 17 hours ago

TLE from 17 hours ago
0 CELESTIS 02/TAURUS R/B
1 25160U 98007D   25348.92103336  .00000097  00000-0  99602-4 0  9993
2 25160 108.0118 320.2933 0059826  87.8251 287.6389 14.22416701444315
Epoch: 2025-12-14T22:06Z
TLE epoch observation values (Epoch: 2025-12-14T22:06:17.282Z)
Latitude
14.04601°
Longitude
-99.74683°
Altitude
806.12 km
Speed
7.458 km/s
True Right ascension
21h 02m 36s
True Declination
13° 57' 57"
Sunlit
Object was in daylight at epoch
Visualization orbit readout
Latitude
Unknown
Longitude
Unknown
Altitude
Unknown
Speed
Unknown
Apparent Right ascension
Unknown
Apparent Declination
Unknown
Sunlit
N/A
Visualization observer readout
Local Sidereal Time
13:26:15
Azimuth
Unknown
Elevation
Unknown
Doppler factor
Unknown
Orbital elements
Apogee altitude
858.047 km
Perigee altitude
771.98 km
Semi-major axis
7,193.15 km
Eccentricity
0.00598
Inclination
108.0118°
RAAN
320.2933°
Arg. of periapsis
87.8251°
True anomaly
286.98411°
Mean anomaly
287.6389°
Eccentric anomaly
287.31165°
Mean motion
3.55766 °/min
Orbital period
101.19 mins
BSTAR
0.000099602
Loading maneuver chart data...
Computing Atmospheric mass density...
Loading historical data...
Loading historical data...
Loading historical data...
Loading historical data...
Loading historical data...
Loading historical data...
Loading historical data...
Other satellites on launch #7 in the year 1998 (1998-02-10 UTC)

Documentation

Showing up to 5 results
|